Terminal Aerodrome Forecast
Issued by NWS Charleston, WV

Current Version | Previous Version | Text Only | Print | Product List | Glossary Off
Versions: 1 2 3 4 5 6 7 8 9 10 11 12 13 14 15 16 17 18 19

428
FTUS41 KRLX 061505 AAA
TAFBKW
TAF AMD
KBKW 061505Z 0615/0712 23006KT P6SM SCT200
     FM070000 00000KT P6SM BKN200=

USA.gov is the U.S. government's official web portal to all federal, state and local government web resources and services.